"Pseudo-MPEC" for C0FKJ95

Created 2023 Jan 27 17:22:03 UT using Find_Orb

Click here for an explanation of pseudo-MPECs

 
 Astrometry: 
     C0FKJ95* C2023 01 21b,rl0NAstrometryd+76s4?_xqt6x((/9[JMLKv5h]a4mjRR'iLpV00
     C0FKJ95  C2023 01 21.1nZredacted;Ohp(JR7c4k`AAOc$kwq5PJpsPf[aZclick;jerrV00
     C0FKJ95  C2023 01 21dD`Z5!0*?5u`dFdZ?:G!U[pF86r.6bnpQnLxkQMak7.VL'Js(.SFV00
     C0FKJ95  C2023 01 21ix?wi'E_39eOlVZ?K1[]a,0jfrwls@D8=gsM,/l5!IouAu`!VwbaV00
     C0FKJ95  C2023 01 25,\Y)(RI'D@n6uJFhereh:!k/vf*\g;Y)1t6nTsP`wW+qLIb!M.igV00
     C0FKJ95  C2023 01 25/4Q`5BAPVKbP;0^h`E?r*kx-Sy4aCVJW-02B-SM=XimsS,9+[e5cV00
     C0FKJ95  C2023 01 25vY=0t:fEKforM/]JkwYIf'w?392rNR-Uo)h2mcL4bR;q5eh!*\\'V00
     C0FKJ95  C2023 01 25UItBAt(1ieVYc\G%4bP$(r*Dexplanationth'0o\ZC$UFR^1BI1V00
     C0FKJ95 KC2023 01 27R\N4)SIF*MN1rPS;IjOGn*G!hXCljO(cfLf20m:2Yf=3@X60a]XkH21
     C0FKJ95 KC2023 01 27^Y4=VZa_bYIN+i:;7T(puy];1s%r17coKQf[1'AtaDF3=$KDtFw1H21

Station data:
(H21) Astronomical Research Observatory, Westfield  (N39.483054 W87.968270)
   US/Illinois.  Observer R. Holmes. Measurers S. Foglia, L. Buzzi, T.
   Linder, R. Holmes. 0.76-m f/3.0 astrograph + CCD0.81-m f/4.0 astrograph +
   CCD0.61-m f/4.5 astrograph + CCD0.40-m f/5.32 astrograph + CCD.
(V00) Kitt Peak-Bok  (N31.963125 W111.600190)  US/Arizona.  Observers T. A.
   Pruyne, B. M. Africano, E. J. Christensen, G. A. Farneth, D. C. Fuls, A.
   R. Gibbs, A. D. Grauer, H. Gröller, J. A. Johnson, R. A. Kowalski, S. M.
   Larson, G. J. Leonard, D. Rankin, R. L. Seaman, F. C. Shelly, K. W.
   Wierzchoś. 2.25-m reflector + CCD.

Orbital elements:  C0FKJ95
   Perihelion 2022 Sep 5.54499 +/- 1.89 TT = 13:04:46 (JD 2459828.04499)
Epoch 2023 Jan 27.0 TT = JDT 2459971.5   Earth MOID: 0.6805      AutoNEOCP
M  33.82339094 +/- 1.0              (J2000 ecliptic)
n   0.23577698 +/- 0.00429          Peri.   78.26345 +/- 0.15
a   2.59498653 +/- 0.0314           Node   351.95152 +/- 0.15
e   0.4356882 +/- 0.00967           Incl.   27.19484 +/- 0.27
P   4.18                   H 18.78  G  0.15   U  9.1
q 1.46438130 +/- 0.00811    Q 3.72559175 +/- 0.0701
From 10 observations 2023 Jan. 21-27; mean residual 0".09
Residuals in arcseconds: 
230121 V00  .08-  .04+    230125 V00  .04+  .03+    230127 H21  .08-  .14+    
230121 V00  .09-  .12+    230125 V00  .03+  .07+    230127 H21  .08+  .14-    
230121 V00  .03+  .04-    230125 V00  .11-  .16-    
230121 V00  .14+  .12-    230125 V00  .04+  .06+    

Ephemerides (geocentric):
Date (UTC) HH   RA             Dec           delta  r     elong  mag " sig PA
---- --------  ------------   ------------  ------ ------ -----  --- --------
2023 01 27 17  12 02 56.443   +19 16 27.18  1.1337 1.9344 131.8 21.6 .274 161
2023 01 27 18  12 02 53.953   +19 16 14.55  1.1335 1.9346 131.8 21.6 .286 161
2023 01 27 19  12 02 51.459   +19 16 01.92  1.1333 1.9348 131.9 21.6 .297 161
2023 01 27 20  12 02 48.960   +19 15 49.29  1.1332 1.9350 131.9 21.6 .309 161
2023 01 27 21  12 02 46.455   +19 15 36.66  1.1330 1.9352 132.0 21.6 .321 161
2023 01 27 22  12 02 43.946   +19 15 24.04  1.1328 1.9355 132.0 21.6 .333 161
2023 01 27 23  12 02 41.432   +19 15 11.42  1.1327 1.9357 132.0 21.6 .345 161
2023 01 28 00  12 02 38.913   +19 14 58.80  1.1325 1.9359 132.1 21.6 .357 162
2023 01 28 01  12 02 36.389   +19 14 46.19  1.1324 1.9361 132.1 21.6 .370 162
2023 01 28 02  12 02 33.860   +19 14 33.57  1.1322 1.9363 132.2 21.6 .382 162
2023 01 28 03  12 02 31.326   +19 14 20.96  1.1320 1.9365 132.2 21.6 .395 162
2023 01 28 04  12 02 28.787   +19 14 08.35  1.1319 1.9367 132.3 21.6 .407 162
2023 01 28 05  12 02 26.244   +19 13 55.75  1.1317 1.9369 132.3 21.6 .420 162
2023 01 28 06  12 02 23.695   +19 13 43.14  1.1315 1.9371 132.4 21.6 .433 162
2023 01 28 07  12 02 21.141   +19 13 30.54  1.1314 1.9374 132.4 21.6 .446 162
2023 01 28 08  12 02 18.583   +19 13 17.94  1.1312 1.9376 132.5 21.6 .459 162
2023 01 28 09  12 02 16.019   +19 13 05.34  1.1311 1.9378 132.5 21.6 .473 163
2023 01 28 10  12 02 13.451   +19 12 52.75  1.1309 1.9380 132.6 21.6 .486 163
2023 01 28 11  12 02 10.877   +19 12 40.15  1.1307 1.9382 132.6 21.6 .500 163
2023 01 28 12  12 02 08.299   +19 12 27.56  1.1306 1.9384 132.7 21.6 .513 163
2023 01 28 13  12 02 05.716   +19 12 14.97  1.1304 1.9386 132.7 21.6 .527 163
2023 01 28 14  12 02 03.128   +19 12 02.39  1.1303 1.9388 132.8 21.6 .541 163
2023 01 28 15  12 02 00.534   +19 11 49.80  1.1301 1.9390 132.8 21.6 .555 163
2023 01 28 16  12 01 57.937   +19 11 37.22  1.1300 1.9393 132.9 21.6 .569 163
2023 01 28 17  12 01 55.334   +19 11 24.64  1.1298 1.9395 132.9 21.6 .583 164
2023 01 28 18  12 01 52.726   +19 11 12.06  1.1296 1.9397 133.0 21.6 .598 164
2023 01 28 19  12 01 50.113   +19 10 59.48  1.1295 1.9399 133.0 21.6 .612 164
2023 01 28 20  12 01 47.496   +19 10 46.90  1.1293 1.9401 133.1 21.6 .626 164
2023 01 28 21  12 01 44.873   +19 10 34.33  1.1292 1.9403 133.1 21.6 .641 164
2023 01 28 22  12 01 42.246   +19 10 21.75  1.1290 1.9405 133.2 21.6 .656 164
2023 01 28 23  12 01 39.614   +19 10 09.18  1.1289 1.9407 133.2 21.6 .671 164
2023 01 29 00  12 01 36.976   +19 09 56.61  1.1287 1.9409 133.3 21.6 .686 164
2023 01 29 01  12 01 34.334   +19 09 44.04  1.1285 1.9412 133.3 21.6 .701 164
2023 01 29 02  12 01 31.687   +19 09 31.48  1.1284 1.9414 133.3 21.6 .716 165
2023 01 29 03  12 01 29.036   +19 09 18.91  1.1282 1.9416 133.4 21.6 .731 165
2023 01 29 04  12 01 26.379   +19 09 06.35  1.1281 1.9418 133.4 21.6 .747 165
2023 01 29 05  12 01 23.717   +19 08 53.79  1.1279 1.9420 133.5 21.6 .762 165
2023 01 29 06  12 01 21.051   +19 08 41.23  1.1278 1.9422 133.5 21.6 .778 165
2023 01 29 07  12 01 18.380   +19 08 28.67  1.1276 1.9424 133.6 21.6 .794 165
2023 01 29 08  12 01 15.703   +19 08 16.11  1.1275 1.9426 133.6 21.6 .810 165
2023 01 29 09  12 01 13.022   +19 08 03.55  1.1273 1.9428 133.7 21.6 .826 165
2023 01 29 10  12 01 10.337   +19 07 51.00  1.1272 1.9431 133.7 21.6 .842 166
2023 01 29 11  12 01 07.646   +19 07 38.45  1.1270 1.9433 133.8 21.6 .858 166
2023 01 29 12  12 01 04.950   +19 07 25.89  1.1268 1.9435 133.8 21.6 .874 166
2023 01 29 13  12 01 02.250   +19 07 13.34  1.1267 1.9437 133.9 21.6 .891 166
2023 01 29 14  12 00 59.544   +19 07 00.79  1.1265 1.9439 133.9 21.6 .907 166
2023 01 29 15  12 00 56.834   +19 06 48.24  1.1264 1.9441 134.0 21.6 .924 166
2023 01 29 16  12 00 54.119   +19 06 35.70  1.1262 1.9443 134.0 21.6 .941 166